SCP
0 0 0 0 0 0 0 0 0 0 0 0 0 0 0 0 0 0 0 0 0 0 0 0 0 0 0 0 0 0 0 0
0 0 0 0 0 0 0 0 0 0 0 0 0 0 0 0 0 0 0 0 0 0 0 0 0 0 0 0 0 0 0 0
0 0 0 0 0 0 0 0 0 0 0 0 0 0 0 0 0 0 0 0 0 0 0 0 0 0 0 0 0 0 0 0
0 0 0 0 0 0 0 0 0 0 0 0 0 0 0 0 0 0 0 0 0 -0 -0 0 0 0 0 0 0 0 0 0
-0 0 0 0 0 0 0 0 0 0 0 0 0 0 0 0 0 0 0 0 0 -0 -0 0 0 0 0 0 0 0 0 0
-0 -0 0 0 0 0 0 0 0 0 0 0 0 0 0 0 0 0 0 0 0 -0 -0 -0 0 0 0 0 0 0 0 0
0 0 0 0 0 0 0 0 0 0 0 0 0 0 0 0 0 0 0 0 0 0 0 0 0 0 0 0 0 0 0 0
0 0 0 0 0 0 0 0 0 0 0 0 0 0 0 0 0 0 0 0 0 0 0 0 0 0 0 0 0 0 0 0
0 0 0 0 0 0 0 0 0 0 0 0 0 0 0 0 0 0 0 0 0 0 0 0 0 0 0 0 0 0 0 0
0 0 0 0 0 0 0 0 0 0 0 0 0 0 0 0 0 0 0 0 0 0 0 0 0 0 0 0 0 0 0 0
0 0 0 0 0 0 0 0 0 0 0 0 0 0 0 0 0 0 0 0 0 0 0 0 0 0 0 0 0 0 0 0
0 0 0 0 0 0 0 0 0 0 0 0 0 0 0 0 0 0 0 0 0 0 0 0 0 0 0 0 0 0 0 0
0 0 0 0 0 0 0 0 0 0 0 0 0 0 0 0 0 0 0 0 0 0 0 0 0 0 0 0 0 0 0 0
0 0 0 0 0 0 0 0 0 0 0 0 0 0 0 0 0 0 0 0 0 0 0 0 0 0 0 0 0 0 0 0
0 0 0 0 0 0 0 0 0 0 0 0 0 0 0 0 0 0 0 0 0 0 0 0 0 0 0 0 0 0 0 0
0 0 0 0 0 0 0 0 0 0 0 0 0 0 0 0 0 0 0 0 0 0 0 0 0 0 0 0 0 0 0 0
0 0 0 0 0 0 0 0 0 0 0 0 0 0 0 0 0 0 0 0 0 0 0 0 0 0 0 0 0 0 0 0
0 0 0 0 0 0 0 0 0 0 0 0 0 0 0 0 0 0 0 0 0 0 0 0 0 0 0 0 0 0 0 0
0 0 0 0 0 0 0 0 0 0 0 0 0 0 0 0 0 0 0 0 0 0 0 0 0 0 0 0 0 0 0 0
0 0 0 0 0 0 0 0 0 0 0 0 0 0 0 0 0 0 0 0 0 0 0 0 0 0 0 0 0 0 0 0
Wind_Speed_500mb
35 31 24 29 25 18 18 18 19 20 21 21 22 23 26 24 24 22 21 20 17 15 12 10 8 9 13 20 24 21 21 18
32 26 27 27 17 13 15 17 18 21 23 26 22 23 22 20 20 23 23 23 19 18 15 9 5 7 12 19 23 18 18 15
22 23 23 19 13 12 15 18 22 23 24 20 15 18 17 18 16 18 20 22 21 20 19 14 8 5 1 10 15 16 21 18
16 10 14 10 9 9 12 17 24 21 19 17 12 11 12 14 13 15 16 18 17 17 20 16 10 5 4 3 7 11 17 17
18 4 10 6 11 5 10 16 15 13 8 8 6 6 6 9 7 9 11 15 18 19 22 21 16 13 17 15 13 13 18 20
18 5 6 17 11 11 8 9 7 5 5 2 4 6 3 4 5 11 11 15 18 22 27 24 21 21 20 18 13 14 25 24
24 18 6 21 16 13 9 9 8 6 9 9 11 13 18 15 16 19 18 19 19 22 27 28 28 27 27 25 19 13 16 30
22 19 17 19 18 16 12 13 17 16 16 15 21 27 24 24 25 25 27 25 24 27 30 33 33 34 34 34 33 33 21 19
23 20 25 25 23 14 10 11 14 15 24 26 30 34 34 34 34 33 31 35 38 35 34 36 38 39 38 31 25 21 20 19
21 23 20 29 36 32 33 34 39 44 34 35 39 39 40 43 44 43 49 44 38 37 34 36 43 44 40 32 26 24 26 28
24 15 8 5 11 31 28 27 30 35 40 39 41 45 47 50 51 55 49 43 40 40 39 40 44 44 42 40 34 33 30 31
22 13 8 9 18 26 31 36 39 42 44 51 56 56 56 55 53 54 48 40 39 48 49 44 43 44 43 43 41 38 36 31
16 16 11 19 33 41 47 51 50 46 48 51 53 53 35 40 39 34 46 57 62 56 53 45 42 45 44 47 47 44 45 47
30 34 34 33 40 41 41 43 46 51 54 55 58 58 61 65 54 53 55 52 66 61 56 51 48 41 48 43 49 52 52 51
16 25 28 31 28 35 44 49 55 59 61 63 63 63 70 59 59 51 54 51 56 59 60 60 54 44 48 48 27 28 27 26
23 26 29 35 47 53 56 52 53 55 58 60 61 60 63 67 69 69 69 61 53 57 60 62 58 53 52 55 55 44 28 16
30 36 43 48 55 55 58 63 64 64 67 67 65 60 56 57 62 65 68 70 64 57 63 63 65 59 54 55 59 59 56 42
41 43 46 51 53 51 54 58 61 63 65 67 69 73 71 65 59 57 54 51 53 66 67 68 70 67 60 53 62 58 58 50
38 44 48 46 46 47 46 52 57 57 55 56 53 54 60 66 69 69 66 65 60 50 48 62 74 74 69 60 55 63 55 47
44 44 51 54 55 52 50 53 56 54 55 62 66 69 68 63 68 75 78 80 77 80 81 59 57 71 75 68 57 58 59 54
Wind_Direction_500mb
166 175 172 167 171 162 153 155 150 138 129 121 119 104 98 85 70 61 57 51 41 34 30 40 67 100 140 160 183 189 194 202
168 173 175 180 186 166 162 156 143 137 132 118 117 110 103 76 68 61 54 39 32 30 27 35 45 102 149 156 183 187 194 203
181 182 190 183 186 191 173 158 145 134 132 130 117 108 98 70 62 58 47 41 43 34 23 14 21 32 171 184 179 190 196 201
175 177 209 220 216 199 175 158 144 128 133 133 121 91 82 65 46 37 34 27 32 22 13 356 359 353 2 294 225 238 217 217
145 334 181 158 114 129 154 148 159 156 135 134 103 59 63 55 21 6 9 1 2 0 358 346 332 317 332 317 265 250 237 241
161 178 195 156 137 106 131 151 166 178 203 196 13 312 282 299 314 325 331 336 337 337 335 335 322 318 323 305 290 262 239 245
178 191 217 189 165 163 203 221 225 255 273 281 299 290 284 294 304 302 302 310 314 316 315 315 313 311 307 306 301 293 269 259
173 183 181 181 176 204 234 240 235 238 262 271 285 284 287 295 299 295 298 299 302 306 304 301 301 300 298 295 293 294 292 279
163 188 192 195 188 173 195 225 245 244 267 272 274 280 288 288 286 289 294 296 298 300 297 284 285 288 287 285 272 269 281 288
177 193 189 212 211 222 225 235 248 252 250 263 264 271 277 282 279 282 293 284 278 287 301 280 278 282 283 283 269 267 276 283
170 181 193 228 236 244 264 264 263 260 267 263 267 273 276 270 271 281 278 273 279 282 289 294 277 277 278 282 276 266 265 268
168 176 221 284 306 307 295 286 281 270 283 271 278 275 268 271 269 265 260 265 274 275 285 288 278 269 271 270 272 267 259 261
149 179 247 296 306 298 293 289 285 274 276 273 273 263 264 256 266 248 238 250 267 266 270 276 280 265 262 263 264 265 263 264
273 282 283 291 282 288 287 289 290 285 285 284 282 276 277 279 272 269 273 271 263 260 261 269 271 268 254 260 262 267 268 268
295 309 306 308 303 296 291 288 284 279 280 279 276 278 283 276 280 272 274 271 262 261 262 264 259 256 249 250 258 256 269 286
276 284 291 294 291 293 291 287 286 282 281 279 276 272 270 270 272 272 271 264 258 258 258 254 245 250 250 245 246 250 253 275
305 304 303 304 303 300 295 290 289 290 289 287 284 283 282 275 271 269 268 263 253 242 249 249 243 245 249 248 243 245 248 251
310 305 304 308 309 307 300 297 293 291 290 287 283 282 283 283 276 271 266 258 254 248 241 241 243 247 250 252 239 238 241 239
315 316 316 314 309 303 294 288 284 281 280 280 280 281 284 275 270 269 265 258 260 257 247 242 240 240 245 247 244 237 239 238
322 319 318 318 313 306 303 299 294 292 290 285 281 281 277 268 263 261 260 260 256 252 252 254 248 234 233 241 241 236 234 231
Wind_Speed_850mb
35 31 24 29 25 18 18 18 19 20 21 21 22 23 26 24 24 22 21 20 17 15 12 10 8 9 13 20 24 21 21 18
32 26 27 27 17 13 15 17 18 21 23 26 22 23 22 20 20 23 23 23 19 18 15 9 5 7 12 19 23 18 18 15
22 23 23 19 13 12 15 18 22 23 24 20 15 18 17 18 16 18 20 22 21 20 19 14 8 5 1 10 15 16 21 18
16 10 14 10 9 9 12 17 24 21 19 17 12 11 12 14 13 15 16 18 17 17 20 16 10 5 4 3 7 11 17 17
18 4 10 6 11 5 10 16 15 13 8 8 6 6 6 9 7 9 11 15 18 19 22 21 16 13 17 15 13 13 18 20
18 5 6 17 11 11 8 9 7 5 5 2 4 6 3 4 5 11 11 15 18 22 27 24 21 21 20 18 13 14 25 24
24 18 6 21 16 13 9 9 8 6 9 9 11 13 18 15 16 19 18 19 19 22 27 28 28 27 27 25 19 13 16 30
22 19 17 19 18 16 12 13 17 16 16 15 21 27 24 24 25 25 27 25 24 27 30 33 33 34 34 34 33 33 21 19
23 20 25 25 23 14 10 11 14 15 24 26 30 34 34 34 34 33 31 35 38 35 34 36 38 39 38 31 25 21 20 19
21 23 20 29 36 32 33 34 39 44 34 35 39 39 40 43 44 43 49 44 38 37 34 36 43 44 40 32 26 24 26 28
24 15 8 5 11 31 28 27 30 35 40 39 41 45 47 50 51 55 49 43 40 40 39 40 44 44 42 40 34 33 30 31
22 13 8 9 18 26 31 36 39 42 44 51 56 56 56 55 53 54 48 40 39 48 49 44 43 44 43 43 41 38 36 31
16 16 11 19 33 41 47 51 50 46 48 51 53 53 35 40 39 34 46 57 62 56 53 45 42 45 44 47 47 44 45 47
30 34 34 33 40 41 41 43 46 51 54 55 58 58 61 65 54 53 55 52 66 61 56 51 48 41 48 43 49 52 52 51
16 25 28 31 28 35 44 49 55 59 61 63 63 63 70 59 59 51 54 51 56 59 60 60 54 44 48 48 27 28 27 26
23 26 29 35 47 53 56 52 53 55 58 60 61 60 63 67 69 69 69 61 53 57 60 62 58 53 52 55 55 44 28 16
30 36 43 48 55 55 58 63 64 64 67 67 65 60 56 57 62 65 68 70 64 57 63 63 65 59 54 55 59 59 56 42
41 43 46 51 53 51 54 58 61 63 65 67 69 73 71 65 59 57 54 51 53 66 67 68 70 67 60 53 62 58 58 50
38 44 48 46 46 47 46 52 57 57 55 56 53 54 60 66 69 69 66 65 60 50 48 62 74 74 69 60 55 63 55 47
44 44 51 54 55 52 50 53 56 54 55 62 66 69 68 63 68 75 78 80 77 80 81 59 57 71 75 68 57 58 59 54
Wind_Direction_850mb
166 175 172 167 171 162 153 155 150 138 129 121 119 104 98 85 70 61 57 51 41 34 30 40 67 100 140 160 183 189 194 202
168 173 175 180 186 166 162 156 143 137 132 118 117 110 103 76 68 61 54 39 32 30 27 35 45 102 149 156 183 187 194 203
181 182 190 183 186 191 173 158 145 134 132 130 117 108 98 70 62 58 47 41 43 34 23 14 21 32 171 184 179 190 196 201
175 177 209 220 216 199 175 158 144 128 133 133 121 91 82 65 46 37 34 27 32 22 13 356 359 353 2 294 225 238 217 217
145 334 181 158 114 129 154 148 159 156 135 134 103 59 63 55 21 6 9 1 2 0 358 346 332 317 332 317 265 250 237 241
161 178 195 156 137 106 131 151 166 178 203 196 13 312 282 299 314 325 331 336 337 337 335 335 322 318 323 305 290 262 239 245
178 191 217 189 165 163 203 221 225 255 273 281 299 290 284 294 304 302 302 310 314 316 315 315 313 311 307 306 301 293 269 259
173 183 181 181 176 204 234 240 235 238 262 271 285 284 287 295 299 295 298 299 302 306 304 301 301 300 298 295 293 294 292 279
163 188 192 195 188 173 195 225 245 244 267 272 274 280 288 288 286 289 294 296 298 300 297 284 285 288 287 285 272 269 281 288
177 193 189 212 211 222 225 235 248 252 250 263 264 271 277 282 279 282 293 284 278 287 301 280 278 282 283 283 269 267 276 283
170 181 193 228 236 244 264 264 263 260 267 263 267 273 276 270 271 281 278 273 279 282 289 294 277 277 278 282 276 266 265 268
168 176 221 284 306 307 295 286 281 270 283 271 278 275 268 271 269 265 260 265 274 275 285 288 278 269 271 270 272 267 259 261
149 179 247 296 306 298 293 289 285 274 276 273 273 263 264 256 266 248 238 250 267 266 270 276 280 265 262 263 264 265 263 264
273 282 283 291 282 288 287 289 290 285 285 284 282 276 277 279 272 269 273 271 263 260 261 269 271 268 254 260 262 267 268 268
295 309 306 308 303 296 291 288 284 279 280 279 276 278 283 276 280 272 274 271 262 261 262 264 259 256 249 250 258 256 269 286
276 284 291 294 291 293 291 287 286 282 281 279 276 272 270 270 272 272 271 264 258 258 258 254 245 250 250 245 246 250 253 275
305 304 303 304 303 300 295 290 289 290 289 287 284 283 282 275 271 269 268 263 253 242 249 249 243 245 249 248 243 245 248 251
310 305 304 308 309 307 300 297 293 291 290 287 283 282 283 283 276 271 266 258 254 248 241 241 243 247 250 252 239 238 241 239
315 316 316 314 309 303 294 288 284 281 280 280 280 281 284 275 270 269 265 258 260 257 247 242 240 240 245 247 244 237 239 238
322 319 318 318 313 306 303 299 294 292 290 285 281 281 277 268 263 261 260 260 256 252 252 254 248 234 233 241 241 236 234 231